Location: Newark
(7.0858°N, 171.3717°E)
Time: 11:53:34
(UTC+00:00)

Courier 1B - Visible Passes

Search period start: 30 November 2020 00:00
Search period end: 10 December 2020 00:00
Orbit: 962 x 1209 km, 28.3° (Epoch: 29 November)

Date Brightness Start Highest point End Pass type
(mag) Time Alt. Az. Time Alt. Az. Time Alt. Az.
30 Nov 7.5 07:08:05 10° WSW 07:14:33 79° NNW 07:19:04 21° NE visible
30 Nov 9.5 09:03:41 10° WNW 09:05:58 19° WNW 09:05:58 19° WNW visible
30 Nov 10.1 15:01:26 15° ENE 15:01:26 15° ENE 15:02:46 10° E visible
30 Nov 7.9 16:48:20 45° NW 16:51:02 79° NNE 16:58:55 10° ESE visible
01 Dec 8.5 08:09:17 10° W 08:15:00 33° NNW 08:15:41 32° NNW visible
01 Dec 8.3 15:58:03 55° ENE 15:58:03 55° ENE 16:04:42 10° ESE visible
01 Dec 8.5 17:44:57 13° W 17:51:27 46° SSW 17:58:54 10° SE visible
02 Dec 8.2 07:15:01 10° W 07:21:08 44° NNW 07:25:23 19° NE visible
02 Dec 10.0 09:12:00 10° NW 09:12:18 11° NW 09:12:18 11° NW visible
02 Dec 9.8 15:07:45 21° E 15:07:45 21° E 15:10:17 10° E visible
02 Dec 8.0 16:54:39 40° W 16:57:26 62° SSW 17:05:12 10° SE visible
03 Dec 9.1 08:17:15 10° WNW 08:21:54 20° NNW 08:21:59 20° NNW visible
03 Dec 7.9 16:04:21 71° SE 16:04:21 71° SE 16:11:18 10° ESE visible
03 Dec 9.2 17:51:43 10° W 17:57:56 26° SSW 18:04:15 10° SSE visible
04 Dec 8.9 07:22:38 10° WNW 07:27:54 26° NNW 07:31:40 16° NNE visible
04 Dec 9.5 15:14:01 27° ESE 15:14:01 27° ESE 15:17:12 10° ESE visible
04 Dec 8.8 17:00:55 27° WSW 17:03:53 36° SSW 17:10:54 10° SSE visible
05 Dec 8.6 06:28:09 10° W 06:34:00 34° NNW 06:39:48 10° NE visible
05 Dec 9.5 08:25:52 10° NW 08:28:13 14° NNW 08:28:13 14° NNW visible
05 Dec 8.4 16:10:34 47° SSW 16:10:34 47° SSW 16:17:19 10° SE visible
05 Dec 9.8 18:00:42 10° WSW 18:04:38 14° SSW 18:08:36 10° S visible
06 Dec 9.3 07:30:54 10° NW 07:34:53 17° NNW 07:37:52 13° NNE visible
06 Dec 9.4 15:20:11 28° SE 15:20:11 28° SE 15:23:32 10° SE visible
06 Dec 9.4 17:07:05 15° WSW 17:10:28 20° SSW 17:15:52 10° SSE visible
07 Dec 9.2 06:36:03 10° WNW 06:40:51 21° NNW 06:45:36 10° NNE visible
07 Dec 9.1 16:16:40 27° SSW 16:16:40 27° SSW 16:22:42 10° SSE visible
08 Dec 9.5 07:39:47 10° NNW 07:42:06 12° N 07:44:01 11° N visible
08 Dec 9.6 15:26:14 23° SSE 15:26:14 23° SSE 15:29:16 10° SE visible
08 Dec 10.0 17:16:06 10° SW 17:17:19 10° SSW 17:18:32 10° SSW visible
09 Dec 9.4 06:44:35 10° NW 06:47:55 14° NNW 06:51:14 10° NNE visible
09 Dec 9.7 16:22:38 15° SSW 16:23:07 15° SSW 16:27:05 10° S visible
